TimeCST,TemperatureF,Dew PointF,Humidity,Sea Level PressureIn,VisibilityMPH,Wind Direction,Wind SpeedMPH,Gust SpeedMPH,PrecipitationIn,Events,Conditions,WindDirDegrees,DateUTC
12:15 AM,55.4,55.4,100,29.95,7.0,South,11.5,16.1,N/A,,Clear,170,2013-01-29 06:15:00
12:35 AM,55.4,55.4,100,29.94,7.0,South,11.5,-,N/A,,Clear,170,2013-01-29 06:35:00
12:55 AM,55.4,55.4,100,29.93,7.0,South,11.5,16.1,N/A,,Clear,170,2013-01-29 06:55:00
1:15 AM,55.4,55.4,100,29.93,7.0,South,10.4,-,N/A,,Scattered Clouds,170,2013-01-29 07:15:00
1:35 AM,55.4,55.4,100,29.92,7.0,SSE,9.2,-,N/A,,Overcast,160,2013-01-29 07:35:00
1:55 AM,57.2,55.4,94,29.92,7.0,South,10.4,-,N/A,,Overcast,170,2013-01-29 07:55:00
2:15 AM,57.2,55.4,94,29.91,7.0,South,10.4,-,N/A,,Overcast,170,2013-01-29 08:15:00
2:35 AM,57.2,55.4,94,29.92,7.0,South,9.2,-,N/A,,Overcast,170,2013-01-29 08:35:00
2:55 AM,55.4,55.4,100,29.91,7.0,South,9.2,-,N/A,,Overcast,170,2013-01-29 08:55:00
3:15 AM,55.4,55.4,100,29.91,7.0,South,9.2,-,N/A,,Overcast,170,2013-01-29 09:15:00
3:35 AM,55.4,55.4,100,29.91,7.0,SSE,9.2,-,N/A,,Overcast,160,2013-01-29 09:35:00
3:55 AM,55.4,55.4,100,29.90,7.0,SSE,10.4,-,N/A,,Overcast,160,2013-01-29 09:55:00
4:15 AM,55.4,55.4,100,29.89,7.0,SSE,12.7,-,N/A,,Overcast,150,2013-01-29 10:15:00
4:35 AM,57.2,55.4,94,29.89,7.0,SSE,9.2,-,N/A,,Overcast,160,2013-01-29 10:35:00
4:55 AM,57.2,55.4,94,29.88,7.0,SSE,9.2,-,N/A,,Overcast,160,2013-01-29 10:55:00
5:15 AM,57.2,57.2,100,29.88,7.0,SSE,8.1,-,N/A,,Overcast,150,2013-01-29 11:15:00
5:35 AM,57.2,57.2,100,29.88,7.0,SSE,9.2,-,N/A,,Overcast,160,2013-01-29 11:35:00
5:55 AM,57.2,57.2,100,29.87,7.0,SSE,9.2,-,N/A,,Overcast,160,2013-01-29 11:55:00
6:15 AM,57.2,57.2,100,29.86,7.0,SSE,9.2,16.1,N/A,,Overcast,160,2013-01-29 12:15:00
6:35 AM,57.2,57.2,100,29.85,7.0,SSE,10.4,-,N/A,,Overcast,160,2013-01-29 12:35:00
6:55 AM,57.2,57.2,100,29.85,7.0,SSE,13.8,19.6,N/A,,Overcast,160,2013-01-29 12:55:00
7:15 AM,59.0,57.2,94,29.84,7.0,South,13.8,19.6,N/A,,Overcast,170,2013-01-29 13:15:00
7:35 AM,59.0,57.2,94,29.85,7.0,South,15.0,20.7,N/A,,Mostly Cloudy,170,2013-01-29 13:35:00
7:55 AM,60.8,59.0,94,29.84,7.0,South,16.1,-,N/A,,Mostly Cloudy,170,2013-01-29 13:55:00
8:15 AM,60.8,59.0,94,29.84,7.0,South,12.7,18.4,N/A,,Scattered Clouds,180,2013-01-29 14:15:00
8:35 AM,60.8,59.0,94,29.85,7.0,South,13.8,19.6,N/A,,Mostly Cloudy,180,2013-01-29 14:35:00
8:55 AM,62.6,60.8,94,29.84,7.0,South,11.5,19.6,N/A,,Overcast,180,2013-01-29 14:55:00
9:15 AM,62.6,60.8,94,29.84,7.0,South,11.5,19.6,N/A,,Overcast,190,2013-01-29 15:15:00
9:35 AM,64.4,60.8,88,29.84,7.0,South,12.7,24.2,N/A,,Overcast,180,2013-01-29 15:35:00
9:55 AM,64.4,60.8,88,29.83,7.0,South,12.7,20.7,N/A,,Overcast,190,2013-01-29 15:55:00
10:15 AM,64.4,60.8,88,29.82,7.0,South,11.5,21.9,N/A,,Overcast,190,2013-01-29 16:15:00
10:35 AM,64.4,60.8,88,29.82,7.0,South,12.7,24.2,N/A,,Overcast,190,2013-01-29 16:35:00
10:55 AM,64.4,60.8,88,29.80,7.0,South,18.4,26.5,N/A,,Overcast,180,2013-01-29 16:55:00
11:15 AM,64.4,60.8,88,29.78,7.0,South,18.4,27.6,N/A,,Mostly Cloudy,180,2013-01-29 17:15:00
11:35 AM,64.4,60.8,88,29.78,7.0,South,16.1,25.3,N/A,,Mostly Cloudy,180,2013-01-29 17:35:00
11:55 AM,64.4,60.8,88,29.75,7.0,South,18.4,29.9,N/A,,Mostly Cloudy,180,2013-01-29 17:55:00
12:15 PM,64.4,59.0,83,29.75,10.0,South,17.3,28.8,N/A,,Overcast,180,2013-01-29 18:15:00
12:35 PM,64.4,59.0,83,29.73,10.0,South,15.0,23.0,N/A,,Overcast,180,2013-01-29 18:35:00
12:55 PM,64.4,59.0,83,29.71,10.0,South,17.3,27.6,N/A,,Overcast,180,2013-01-29 18:55:00
1:15 PM,66.2,59.0,78,29.69,10.0,South,20.7,24.2,N/A,,Overcast,180,2013-01-29 19:15:00
1:35 PM,66.2,59.0,78,29.69,10.0,South,16.1,25.3,N/A,Thunderstorm,Mostly Cloudy,170,2013-01-29 19:35:00
1:55 PM,66.2,60.8,83,29.67,10.0,SSE,18.4,27.6,N/A,,Scattered Clouds,160,2013-01-29 19:55:00
2:15 PM,66.2,60.8,83,29.66,10.0,South,15.0,21.9,N/A,,Scattered Clouds,170,2013-01-29 20:15:00
2:35 PM,66.2,59.0,78,29.66,10.0,South,19.6,25.3,N/A,,Mostly Cloudy,170,2013-01-29 20:35:00
2:55 PM,66.2,59.0,78,29.64,10.0,South,16.1,27.6,N/A,,Overcast,170,2013-01-29 20:55:00
3:15 PM,66.2,59.0,78,29.64,10.0,South,17.3,26.5,N/A,,Overcast,170,2013-01-29 21:15:00
3:35 PM,66.2,59.0,78,29.64,10.0,SSE,17.3,24.2,N/A,,Mostly Cloudy,160,2013-01-29 21:35:00
3:55 PM,64.4,59.0,83,29.62,10.0,South,17.3,23.0,N/A,,Scattered Clouds,170,2013-01-29 21:55:00
4:15 PM,64.4,59.0,83,29.62,10.0,South,18.4,21.9,N/A,,Scattered Clouds,170,2013-01-29 22:15:00
4:35 PM,64.4,59.0,83,29.61,10.0,South,19.6,24.2,N/A,,Clear,170,2013-01-29 22:35:00
4:55 PM,64.4,59.0,83,29.59,10.0,South,18.4,24.2,N/A,,Clear,170,2013-01-29 22:55:00
5:15 PM,64.4,57.2,77,29.58,10.0,South,23.0,32.2,N/A,,Clear,170,2013-01-29 23:15:00
5:35 PM,64.4,57.2,77,29.57,10.0,South,21.9,27.6,N/A,,Clear,170,2013-01-29 23:35:00
5:55 PM,64.4,57.2,77,29.56,10.0,South,21.9,32.2,N/A,,Clear,170,2013-01-29 23:55:00
6:15 PM,64.4,57.2,77,29.56,10.0,South,18.4,28.8,N/A,,Scattered Clouds,170,2013-01-30 00:15:00
6:35 PM,64.4,59.0,83,29.55,10.0,South,19.6,26.5,N/A,,Scattered Clouds,170,2013-01-30 00:35:00
6:55 PM,64.4,59.0,83,29.54,10.0,South,25.3,35.7,N/A,,Scattered Clouds,170,2013-01-30 00:55:00
7:15 PM,64.4,60.8,88,29.52,7.0,South,21.9,33.4,N/A,Rain,Light Rain,170,2013-01-30 01:15:00
7:35 PM,64.4,60.8,88,29.50,10.0,SSE,21.9,29.9,N/A,Rain,Rain,160,2013-01-30 01:35:00
7:55 PM,64.4,60.8,88,29.47,10.0,SSE,18.4,31.1,N/A,,Mostly Cloudy,160,2013-01-30 01:55:00
8:15 PM,66.2,60.8,83,29.45,10.0,SSE,23.0,29.9,N/A,,Overcast,160,2013-01-30 02:15:00
8:35 PM,66.2,60.8,83,29.42,10.0,SSE,20.7,32.2,N/A,,Mostly Cloudy,160,2013-01-30 02:35:00
8:55 PM,66.2,60.8,83,29.40,10.0,SSE,24.2,35.7,N/A,,Mostly Cloudy,160,2013-01-30 02:55:00
9:15 PM,66.2,60.8,83,29.38,10.0,SSE,25.3,35.7,N/A,,Mostly Cloudy,160,2013-01-30 03:15:00
9:35 PM,66.2,60.8,83,29.37,10.0,SSE,23.0,35.7,N/A,Rain-Thunderstorm,Rain,160,2013-01-30 03:35:00
10:15 PM,53.6,-9999,N/A,29.43,-9999.0,NW,32.2,38.0,0.13,Thunderstorm,Thunderstorm,310,2013-01-30 04:15:00
10:35 PM,53.6,53.6,100,29.48,10.0,NW,19.6,26.5,0.26,Rain-Thunderstorm,Light Thunderstorms and Rain,310,2013-01-30 04:35:00
10:55 PM,53.6,53.6,100,29.52,10.0,WNW,17.3,21.9,0.04,Rain-Thunderstorm,Thunderstorms and Rain,300,2013-01-30 04:55:00
11:15 PM,53.6,53.6,100,29.51,10.0,NNW,10.4,-,0.13,Rain,Rain,330,2013-01-30 05:15:00
11:35 PM,53.6,53.6,100,29.50,10.0,NNW,8.1,-,0.22,Rain,Rain,340,2013-01-30 05:35:00
11:55 PM,53.6,53.6,100,29.50,10.0,NNW,3.5,-,0.06,Rain,Rain,330,2013-01-30 05:55:00